Location: Northcutt
(34.7304°N, 84.4305°W)
Time: 21:06:53
(UTC+00:00)

Explorer 11/Cluster Stage 4 - All Passes

Search period start: 30 September 2022 00:00
Search period end: 10 October 2022 00:00
Orbit: 466 x 1249 km, 28.8° (Epoch: 30 September)

Date Brightness Start Highest point End Pass type
(mag) Time Alt. Az. Time Alt. Az. Time Alt. Az.
30 Sep - 16:09:55 10° SSW 16:15:02 18° SSE 16:19:49 10° ESE daylight
30 Sep - 17:56:39 10° SW 18:03:33 37° SSE 18:09:26 10° E daylight
30 Sep - 19:45:23 10° WSW 19:52:06 49° S 19:57:32 10° ESE daylight
30 Sep - 21:34:45 10° W 21:40:21 38° SSW 21:44:53 10° SE daylight
30 Sep - 23:25:03 10° WSW 23:27:57 15° SSW 23:30:34 10° S daylight
01 Oct - 15:56:40 10° SSW 16:02:24 21° SSE 16:07:47 10° ESE daylight
01 Oct - 17:43:47 10° SW 17:50:58 40° SSE 17:57:11 10° E daylight
01 Oct - 19:32:37 10° WSW 19:39:36 51° S 19:45:17 10° ESE daylight
01 Oct - 21:22:06 10° W 21:27:54 37° SSW 21:32:36 10° SE daylight
01 Oct - 23:12:45 10° WSW 23:15:30 14° SSW 23:17:59 10° S daylight
02 Oct - 15:43:32 10° SSW 15:49:45 24° SSE 15:55:37 10° ESE daylight
02 Oct - 17:30:55 10° SW 17:38:23 44° SSE 17:44:53 10° E daylight
02 Oct - 19:19:53 10° WSW 19:27:05 52° S 19:32:59 10° ESE daylight
02 Oct - 21:09:26 10° W 21:15:25 36° SSW 21:20:17 10° SE daylight
02 Oct - 23:00:28 10° WSW 23:02:59 13° SSW 23:05:19 10° S daylight
03 Oct - 15:30:30 10° SSW 15:37:04 27° SSE 15:43:22 10° ESE daylight
03 Oct - 17:18:06 10° WSW 17:25:45 47° S 17:32:32 10° E daylight
03 Oct - 19:07:09 10° WSW 19:14:32 53° S 19:20:40 10° ESE daylight
03 Oct - 20:56:46 10° W 21:02:53 35° SSW 21:07:55 10° SE daylight
03 Oct - 22:48:14 10° WSW 22:50:28 12° SSW 22:52:33 10° S daylight
04 Oct - 13:34:08 10° SSE 13:36:06 11° SE 13:38:04 10° SE daylight
04 Oct - 15:17:33 10° SW 15:24:23 30° SSE 15:31:01 10° E daylight
04 Oct - 17:05:19 10° WSW 17:13:07 49° S 17:20:08 10° E daylight
04 Oct - 18:54:24 10° W 19:01:57 53° S 19:08:19 10° ESE daylight
04 Oct - 20:44:06 10° W 20:50:20 34° SSW 20:55:32 10° SE daylight
04 Oct - 22:36:10 10° SW 22:37:54 11° SW 22:39:34 10° SSW daylight
05 Oct - 13:20:11 10° S 13:23:24 13° SSE 13:26:40 10° ESE daylight
05 Oct - 15:04:40 10° SW 15:11:40 33° SSE 15:18:37 10° E daylight
05 Oct - 16:52:34 10° WSW 17:00:28 52° S 17:07:42 10° E daylight
05 Oct - 18:41:40 10° W 18:49:21 53° S 18:55:56 10° ESE daylight
05 Oct - 20:31:26 10° W 20:37:45 32° SSW 20:43:05 10° SE daylight
05 Oct - 22:24:32 10° SW 22:25:20 10° SW 22:26:08 10° SSW daylight
06 Oct - 13:06:44 10° S 13:10:40 15° SSE 13:14:45 10° ESE daylight
06 Oct - 14:51:50 10° SW 14:58:57 35° SSE 15:06:08 10° E daylight
06 Oct - 16:39:50 10° WSW 16:47:47 54° S 16:55:14 10° E daylight
06 Oct - 18:28:56 10° W 18:36:43 52° S 18:43:29 10° ESE daylight
06 Oct - 20:18:46 10° W 20:25:08 31° SSW 20:30:35 10° SE daylight
07 Oct - 12:53:32 10° S 12:57:57 16° SSE 13:02:35 10° ESE daylight
07 Oct - 14:39:04 10° SW 14:46:14 38° SSE 14:53:36 10° E daylight
07 Oct - 16:27:09 10° WSW 16:35:06 55° S 16:42:43 10° E daylight
07 Oct - 18:16:15 10° W 18:24:04 51° S 18:31:01 10° ESE daylight
07 Oct - 20:06:08 10° W 20:12:30 29° SSW 20:18:02 10° SSE daylight
08 Oct - 12:40:30 10° S 12:45:14 18° SSE 12:50:17 10° ESE daylight
08 Oct - 14:26:22 10° SW 14:33:31 40° SSE 14:41:02 10° E daylight
08 Oct - 16:14:29 10° WSW 16:22:24 57° S 16:30:09 10° E daylight
08 Oct - 18:03:33 10° W 18:11:23 50° SSW 18:18:30 10° ESE daylight
08 Oct - 19:53:31 10° W 19:59:49 27° SSW 20:05:25 10° SSE daylight
09 Oct - 12:27:35 10° SSW 12:32:30 20° SSE 12:37:52 10° ESE daylight
09 Oct - 14:13:43 10° SW 14:20:48 43° SSE 14:28:25 10° E daylight
09 Oct - 16:01:51 10° WSW 16:09:43 57° S 16:17:35 10° ESE daylight
09 Oct - 17:50:53 10° W 17:58:42 48° SSW 18:05:56 10° ESE daylight
09 Oct - 19:40:56 10° WSW 19:47:07 25° SSW 19:52:43 10° SSE daylight
